Погода в Жетыконыре

Хотите узнать прогноз погоды в Жетыконыре? Тогда Вам сюда: Погода в Жетыконыре

Поиск расширенной информации на нашем сайте:

Полезная информация:

Новости сайта



02.01.2020
Опубликован Долгосрочный прогноз погоды по городам России и ближнего зарубежья на январь 2020 года.
Карты: Прогноз на январь и февраль 2020 года, Сравнение прогнозируемой аномалии приземной температуры воздуха на январь 2020 года по разным моделям.




Погода в Жетыконыре - сегодня

Время (UTC), дата Ветер
(°,м/с) 
Видим.   Явления Облачность Т
(°С)
Тd
(°С)
f(%) Тe
(°С)
Pmin
(гПа)
dP
(гПа)
Po
(мм)
O2
(г/м3)
Тmin Tmax R s Состояние
почвы
09 22.10.21 200 (Ю) 10 км    9/9 600 м 
[Sc]
+2.4 -3.9 63 -1  1030.7  747  299           
12 22.10.21 200 (Ю) 10 км    10/10 300 м кучево-дожд. 
[Cb cap]
+3.3 -3.4 61 1032.1  1.4  748  298           
15 22.10.21 180 (Ю) н/о    10/10 300 м кучево-дожд. 
[Cb cap]
+2.6 -3.7 63 1033.2  1.3  749  299    +3.7       
18 22.10.21 230 (ЮЗ) н/о    10/10 300 м кучево-дожд. 
[Cb cap]
+2 -3.7 66 -1  1033.6  0.1  749  300    +3.7       
21 22.10.21 230 (ЮЗ) н/о    10/10 600 м 
[Sc]
+0.8 -4.2 69 -3  1033  -0.9  749  301           
00 23.10.21 230 (ЮЗ) н/о    10/10 600 м 
[Sc]
-1.1 -5 75 -6  1034.3  1.1  749  304           
03 23.10.21 180 (Ю) 10 км    8/0 средняя 
[Ac trans]
-0.6 -4.8 73 -4  1034.3  0.1  749  303           
06 23.10.21 180 (Ю) 10  10 км  пыльный позёмок  6/0 верхняя 
[Cs]
+6.6 -1.1 58 +3  1033.5  0.1  750  295  -1.2         
09 23.10.21 180 (Ю) 10  10 км  пыльный позёмок  6/0 верхняя 
[Ci]
+12.2 +1.7 49 +10  1031.6  -1.2  749  288           
12 23.10.21 230 (ЮЗ) 10 км    8/0 средняя 
[Ac trans]
+12.6 +1.7 47 +11  1031.9  0.3  749  288           
15 23.10.21 тихо ()   н/о    6/0 средняя 
[Ac trans]
+7.2 -0.9 56 +7  1033  -0.5  749  294    +13.6       
18 23.10.21 180 (Ю) н/о    ясно 
+4 -1.5 67 +3  1032.7  -0.7  749  297    +13.6       
21 23.10.21 180 (Ю) н/о    ясно 
+0.9 -3 75 -1  1032.9  -0.3  749  301           
00 24.10.21 тихо ()   н/о    ясно 
-0.8 -3.6 81 -1  1033.7  0.7  749  303           
03 24.10.21 тихо ()   10 км    ясно 
-0.5 -3.6 80 -1  1032.5  -1.2  748  302           
06 24.10.21 тихо ()   10 км    ясно 
+9.8 +3.6 65 +10  1030.1  -0.9  747  290  -0.9         
09 24.10.21 140 (ЮВ) 10 км    ясно 
+14.5 +4.6 51 +14  1026.2  -3.2  745  284           
12 24.10.21 090 (В) 10 км    ясно 
+15.1 +5 51 +15  1024.5  -1.7  744  283           
15 24.10.21 090 (В) н/о    ясно 
+8.8 +1.5 60 +8  1024.8  -0.3  744  290    +9.7      мокрая 
18 24.10.21 090 (В) н/о    ясно 
+4.6 -0.8 68 +2  1024.1  -1.2  743  294    +15.8       
21 24.10.21 090 (В) н/о    ясно 
+1.4 -2.7 74 -1  1024  -0.6  742  298           
00 25.10.21 тихо ()   н/о    ясно 
-0.6 -3.4 81 -1  1025.1  0.8  743  300           
03 25.10.21 тихо ()   10 км    ясно 
-0.3 -3.4 80 -0  1022.1  -2.9  741  299           
06 25.10.21 тихо ()   10 км    ясно 
+11.4 +5.6 67 +11  1020.1  -0.5  740  285  -0.7         
09 25.10.21 тихо ()   10 км    ясно 
+16.6 +6.4 51 +17  1017.5  -1.8  739  280           
Время (UTC), дата Ветер
(°,м/с) 
Видим.   Явления Облачность Т
(°С)
Тd
(°С)
f(%) Тe
(°С)
Pmin
(гПа)
dP
(гПа)
Po
(мм)
O2
(г/м3)
Тmin Tmax R s Состояние
почвы

Для получения пояснительной информации подведите курсор к названию столбца.

ПОГОДА в Жетыконыре - архив

Всё, что Вы хотите узнать о погоде в Жетыконыре - удобно и подробно!

Выберите нужную дату (начиная с 1 января 2019* года) и нажмите кнопку "Найти".
Будут отображены архивные сводки погоды по пункту Жетыконыр, начиная с указанной даты.


Отображать данные в формате CSV (для использования в таблицах Excel)


Внимание! Наш архив погоды предназначен исключительно для личного некоммерческого использования в познавательных целях. Если Вам необходимы официальные справки о состоянии погоды (для производственных, юридических, коммерческих и т.п. целей), обращайтесь в органы Росгидромета.

*Примечание: данная дата относится к архиву по метеостанциям СССР (Россия, СНГ, Балтия).
Архив по метеостанциям Зарубежной Европы и Азии (кроме Китая) хранится 10 дней, по другим регионам земного шара (Китай, Африка, Америка, Австралия, Океания) - 1 день.

Жетыконыр - район местоположения метеостанции


Название, широта, долгота, высота метеостанции:
Жетыконыр 46.6°ш. 68.6°д. 276 м над ур. моря [Казахстан]

Дополнительная информация

В oтличие oт бoльшинства пoгoдных сайтoв мы публикуем пoдрoбную метеoинфoрмацию в детальнoм прoфессиoнальнoм фoрмате.

Характеристики температуры и влажнoсти вoздуха измеряются на высoте 2 м в тени вдали oт зданий и деревьев.
Скoрoсть ветра измеряется на высoте 10 м (на урoвне рoста челoвека скoрoсть ветра ниже в 1.5-2 раза). Если метеoстанция нахoдится в гoрoде или в лесу, тo скoрoсть ветра занижена на 2-4 м/с пo сравнению с oткрытым местoм. Скoрoсть ветра над акватoриями крупных рек и oзёр, а также на вершинах хoлмoв на 2-5 м/с выше, чем в oбычных услoвиях.
Атмoсфернoе давление в разных тoчках местнoсти мoжет значительнo oтличаться oт давления на метеoстанции, в зависимoсти oт услoвий рельефа (при пoдъёме на 10 м давление пoнижается примернo на 1 мм рт.ст.).